"Pseudo-MPEC" for P10LqNQ

Created 2019 Jan 17 12:18:46 UT using Find_Orb

Click here for an explanation of pseudo-MPECs

 
 Astrometry: 
     P10LqNQ  C2018 12 12)qJ8u`WQVAstrometryQYYKLqxOh.S.N[YfsVNH2W?6InQ-2Yg7_F51
     P10LqNQ  C2018 12 12iLV#RvvbJyN'r?*gp0g#vj39]#'FaL2dX.;tX:I92hCS^-t;*t,qF51
     P10LqNQ  C2018 12 12JHG63ZDNTVBWI.yFb7T\S819/x\redacted;*mC%qE.2`,:oc\LfF51
     P10LqNQ  C2019 01 12ip3T/vSkZh_q4@%2;OOQov(\)E#Mj'Kg4qG4_a,M'e(aQC7ZNmPKF51
     P10LqNQ  C2019 01 126Zcb!Q3IclickfrdLEk(,C%w#Sj-$?t3`nPx18Tc%W)RAURfF4LCF51
     P10LqNQ  C2019 01 12%4\lN:$SLq-ivdrN_'ZK'nwKa!bphg^KY2%sjXya?h8):@BA!m#IF51
     P10LqNQ  C2019 01 12pvnT!'@'T1_TL%vdbk_+2:R5cQ=(xK/H###^w*9.hereDm5#CS?4F51
     P10LqNQ  C2019 01 17p..x`3.cie@mJ=QcO0;RSnLh-PC_a3/Ju.dcpMR5my_e+kZ2,g@TV06
     P10LqNQ  C2019 01 17+0/:rs#forh!/$n/=3:@$t,d;L?T4Zxs[]8Fl,?/a@ei'\A'pcE1V06
     P10LqNQ  C2019 01 17wZUi!uy@^`aW%P^;,rgP[3apw'NvyLWT;7U7jPu*7RcAk%MKwo!XV06
     P10LqNQ  C2019 01 17C)3xxexplanation$-io]?ytKcohwg?lhwt+%SO\/r?BprGXa;ojV06

Station data:
(F51) Pan-STARRS 1, Haleakala  (N20.707235 W156.255910)  US/Hawaii.
   Observers N. Primak, A. Schultz, S. Watters, J. Thiel, T. Goggia. Measurer
   PS1 Science Consortium. 1.8-m Ritchey-Chrétien + CCD.
(V06) Catalina Sky Survey-Kuiper  (N32.416847 W110.732550)  US/Arizona.
   Observers B. M. Africano, E. J. Christensen, G. A. Farneth, D. C. Fuls, A.
   R. Gibbs, A. D. Grauer, H. Groeller, J. A. Johnson, R. A. Kowalski, S. M.
   Larson, G. J. Leonard, R. L. Seaman, F. C. Shelly. 1.55-m reflector + CCD.

Orbital elements:  P10LqNQ
   Perihelion 2017 Oct 7.592800 +/- 0.458 TT = 14:13:37 (JD 2458034.092800)
Epoch 2019 Jan 17.0 TT = JDT 2458500.5   Earth MOID: 0.8126   AutoNEOCP
M 173.80916263 +/- 0.19             (J2000 ecliptic)
n   0.37265540 +/- 6.43e-5          Peri.  228.32650 +/- 0.16
a   1.91248381 +/- 0.00022          Node    65.44223 +/- 0.010
e   0.0587947 +/- 5.92e-5           Incl.   23.44356 +/- 0.008
P   2.64/966.02d           H 19.4   G  0.15   U  6.3  
q 1.80003986 +/- 0.000105    Q 2.02492776 +/- 0.000342
From 11 observations 2018 Dec. 12-2019 Jan. 17; mean residual 0".10
Residuals in arcseconds: 
181212 F51  .04+  .04+    190112 F51  .02+  .02-    190117 V06  .17+  .15-    
181212 F51  .00   .09+    190112 F51  .04+  .06+    190117 V06  .08-  .15+    
181212 F51  .04-  .13-    190112 F51  .11-  .08-    190117 V06  .12+  .05+    
190112 F51  .06+  .04+    190117 V06  .21-  .05-    

Ephemerides (geocentric):
Date (UTC) HH   RA              Dec         delta   r     elong  mag " sig PA
---- -- -- --  -------------   -----------  ------ ------ -----  --- ---- ---
2019 01 17 12  06 30 14.052   +52 04 42.46  1.1405 2.0244 144.6 22.1 .165  32
2019 01 17 13  06 30 09.665   +52 04 55.20  1.1407 2.0244 144.6 22.1 .168  32
2019 01 17 14  06 30 05.281   +52 05 07.89  1.1409 2.0244 144.6 22.1 .171  32
2019 01 17 15  06 30 00.902   +52 05 20.53  1.1411 2.0244 144.5 22.1 .174  32
2019 01 17 16  06 29 56.527   +52 05 33.11  1.1413 2.0244 144.5 22.1 .177  32
2019 01 17 17  06 29 52.155   +52 05 45.64  1.1415 2.0244 144.5 22.1 .180  31
2019 01 17 18  06 29 47.788   +52 05 58.12  1.1417 2.0244 144.4 22.1 .183  31
2019 01 17 19  06 29 43.424   +52 06 10.54  1.1419 2.0244 144.4 22.1 .186  31
2019 01 17 20  06 29 39.065   +52 06 22.91  1.1421 2.0244 144.4 22.1 .189  31
2019 01 17 21  06 29 34.710   +52 06 35.22  1.1423 2.0244 144.3 22.1 .192  31
2019 01 17 22  06 29 30.359   +52 06 47.48  1.1425 2.0244 144.3 22.1 .195  31
2019 01 17 23  06 29 26.012   +52 06 59.69  1.1427 2.0244 144.3 22.1 .198  31
2019 01 18 00  06 29 21.669   +52 07 11.84  1.1429 2.0244 144.2 22.1 .201  31
2019 01 18 01  06 29 17.330   +52 07 23.94  1.1431 2.0244 144.2 22.1 .204  30
2019 01 18 02  06 29 12.995   +52 07 35.99  1.1433 2.0244 144.2 22.1 .207  30
2019 01 18 03  06 29 08.664   +52 07 47.98  1.1435 2.0244 144.1 22.1 .210  30
2019 01 18 04  06 29 04.338   +52 07 59.92  1.1437 2.0244 144.1 22.1 .213  30
2019 01 18 05  06 29 00.015   +52 08 11.81  1.1439 2.0244 144.1 22.1 .216  30
2019 01 18 06  06 28 55.697   +52 08 23.64  1.1441 2.0244 144.0 22.1 .219  30
2019 01 18 07  06 28 51.383   +52 08 35.42  1.1443 2.0244 144.0 22.1 .222  30
2019 01 18 08  06 28 47.073   +52 08 47.14  1.1445 2.0244 144.0 22.1 .225  30
2019 01 18 09  06 28 42.767   +52 08 58.82  1.1447 2.0244 143.9 22.1 .228  29
2019 01 18 10  06 28 38.466   +52 09 10.44  1.1449 2.0244 143.9 22.1 .231  29
2019 01 18 11  06 28 34.169   +52 09 22.00  1.1451 2.0244 143.9 22.1 .234  29
2019 01 18 12  06 28 29.876   +52 09 33.52  1.1453 2.0244 143.8 22.1 .237  29
2019 01 18 13  06 28 25.587   +52 09 44.98  1.1455 2.0244 143.8 22.1 .240  29
2019 01 18 14  06 28 21.302   +52 09 56.39  1.1457 2.0244 143.8 22.1 .243  29
2019 01 18 15  06 28 17.022   +52 10 07.74  1.1459 2.0245 143.7 22.1 .246  29
2019 01 18 16  06 28 12.746   +52 10 19.05  1.1461 2.0245 143.7 22.1 .249  29
2019 01 18 17  06 28 08.475   +52 10 30.30  1.1463 2.0245 143.7 22.1 .252  28
2019 01 18 18  06 28 04.207   +52 10 41.49  1.1465 2.0245 143.6 22.1 .255  28
2019 01 18 19  06 27 59.944   +52 10 52.64  1.1467 2.0245 143.6 22.1 .258  28
2019 01 18 20  06 27 55.686   +52 11 03.73  1.1469 2.0245 143.5 22.1 .262  28
2019 01 18 21  06 27 51.431   +52 11 14.77  1.1471 2.0245 143.5 22.1 .265  28
2019 01 18 22  06 27 47.181   +52 11 25.76  1.1473 2.0245 143.5 22.1 .268  28
2019 01 18 23  06 27 42.936   +52 11 36.69  1.1475 2.0245 143.4 22.1 .271  28
2019 01 19 00  06 27 38.695   +52 11 47.58  1.1477 2.0245 143.4 22.1 .274  28
2019 01 19 01  06 27 34.458   +52 11 58.41  1.1479 2.0245 143.4 22.1 .277  28
2019 01 19 02  06 27 30.225   +52 12 09.19  1.1481 2.0245 143.3 22.1 .280  27
2019 01 19 03  06 27 25.997   +52 12 19.91  1.1483 2.0245 143.3 22.1 .283  27
2019 01 19 04  06 27 21.774   +52 12 30.59  1.1485 2.0245 143.3 22.1 .286  27
2019 01 19 05  06 27 17.555   +52 12 41.21  1.1487 2.0245 143.2 22.1 .290  27
2019 01 19 06  06 27 13.340   +52 12 51.78  1.1490 2.0245 143.2 22.1 .293  27
2019 01 19 07  06 27 09.130   +52 13 02.30  1.1492 2.0245 143.2 22.1 .296  27
2019 01 19 08  06 27 04.924   +52 13 12.76  1.1494 2.0245 143.1 22.1 .299  27
2019 01 19 09  06 27 00.723   +52 13 23.18  1.1496 2.0245 143.1 22.1 .302  27
2019 01 19 10  06 26 56.526   +52 13 33.54  1.1498 2.0245 143.1 22.1 .305  27
2019 01 19 11  06 26 52.333   +52 13 43.85  1.1500 2.0245 143.0 22.1 .308  27